Date,TemperatureHighF,TemperatureAvgF,TemperatureLowF,DewpointHighF,DewpointAvgF,DewpointLowF,HumidityHigh,HumidityAvg,HumidityLow,PressureMaxIn,PressureMinIn,WindSpeedMaxMPH,WindSpeedAvgMPH,GustSpeedMaxMPH,PrecipitationSumIn
2013-1-1,20.5,20.5,20.5,8.4,8.4,8.4,59,59,59,29.77,29.77,0,0,6,0.00
2013-1-3,28.1,24.2,19.4,17.6,14.8,11.5,72,67,64,29.91,29.86,22,6,22,0.00
2013-1-4,36.8,25.7,15.1,19.9,13.9,4.9,71,61,44,29.90,29.76,28,8,28,0.00
2013-1-5,37.9,31.9,25.0,32.3,24.6,18.5,89,75,55,29.89,29.58,26,4,26,0.02
2013-1-6,36.5,30.4,24.4,31.3,21.7,15.8,83,70,58,29.98,29.54,26,5,28,0.00
2013-1-7,39.6,29.6,21.6,22.8,18.9,14.8,80,65,45,29.98,29.75,28,7,30,0.00
2013-1-8,42.1,35.4,29.0,28.0,24.1,21.5,76,64,49,29.82,29.66,27,5,27,0.00
2013-1-9,48.9,41.0,35.8,29.3,20.3,10.6,65,45,24,30.13,29.64,29,6,33,0.00
2013-1-10,43.1,37.1,32.5,40.7,27.0,19.9,92,67,53,30.16,29.55,17,3,18,0.46
2013-1-11,54.4,50.9,43.1,52.5,47.3,40.9,94,88,80,29.54,29.30,33,8,33,0.21
2013-1-12,53.5,44.5,31.0,46.5,34.5,22.5,83,68,50,29.61,29.35,28,6,28,0.03
2013-1-13,31.2,24.7,15.2,27.3,18.4,5.0,88,77,61,29.89,29.50,20,4,22,0.04
2013-1-14,26.6,19.4,12.6,10.4,5.8,1.0,67,56,37,30.10,29.89,19,2,20,0.00
2013-1-15,29.7,23.3,18.9,16.5,10.5,7.5,65,58,45,30.08,29.93,9,0,10,0.00
2013-1-16,35.9,32.7,21.3,24.9,18.0,7.8,69,55,42,29.69,29.46,30,8,30,0.00
2013-1-17,34.3,28.1,23.8,26.5,8.5,-2.4,73,45,25,30.06,29.69,19,2,19,0.00
2013-1-18,41.6,32.4,22.4,25.2,18.5,10.2,65,57,47,30.08,29.55,33,8,37,0.01
2013-1-19,47.7,42.0,26.9,33.1,26.3,4.1,61,54,31,29.57,29.35,42,10,42,0.00
2013-1-20,26.9,17.7,13.5,5.5,-2.0,-4.7,49,41,34,29.95,29.54,35,6,42,0.00
2013-1-21,14.9,9.6,3.9,-1.5,-8.9,-15.2,53,42,31,29.93,29.78,25,8,25,0.00
2013-1-22,12.1,10.4,3.5,-7.7,-9.2,-12.1,48,40,34,30.00,29.93,19,5,21,0.00
2013-1-23,20.0,14.9,9.9,11.2,0.8,-9.6,70,53,42,30.00,29.76,21,4,23,0.00
2013-1-24,21.0,15.0,7.4,10.2,-0.4,-8.7,71,50,37,30.27,29.97,22,3,22,0.00
2013-1-25,28.5,22.4,18.3,17.8,11.2,2.6,79,62,45,30.04,29.63,19,4,19,0.00
2013-1-26,28.5,22.2,14.0,15.6,7.5,1.6,65,54,31,30.05,29.82,14,1,14,0.00
2013-1-27,37.9,29.8,25.6,35.8,20.8,13.3,92,69,57,30.03,29.56,23,4,23,0.42
2013-1-28,49.4,43.1,37.6,47.7,40.0,34.9,95,89,72,29.61,29.45,22,4,22,0.08
2013-1-29,61.2,57.4,38.9,57.5,54.5,36.9,97,90,86,29.47,29.07,29,7,29,1.19
2013-2-9,35.9,34.1,29.3,25.9,23.4,19.0,68,64,61,30.01,29.74,21,5,21,0.05
2013-2-10,49.8,41.5,35.0,45.1,34.7,22.5,91,77,59,29.74,29.14,35,8,35,0.22
2013-2-11,47.3,34.3,29.1,37.1,21.8,17.2,69,60,55,29.67,29.15,28,13,40,0.00
2013-2-12,29.4,27.5,25.1,20.4,17.8,15.2,74,67,61,29.76,29.57,20,4,23,0.00
2013-2-13,45.2,37.8,26.7,29.6,25.7,20.0,77,63,44,29.57,29.35,16,4,17,0.00
2013-2-14,39.5,37.6,34.0,29.9,24.8,16.2,73,60,44,29.62,29.28,31,6,31,0.00
2013-2-15,34.1,28.2,21.4,22.1,9.8,1.4,78,47,28,29.83,29.62,17,3,19,0.00
2013-2-16,21.3,17.0,13.3,6.3,-0.5,-4.3,55,46,36,29.85,29.77,19,3,20,0.00
2013-2-17,30.4,22.1,12.4,9.2,-1.9,-10.2,50,35,20,29.87,29.67,23,3,23,0.00
2013-2-18,52.9,41.2,29.5,43.5,28.3,9.7,87,61,43,29.67,29.04,38,11,38,0.16
2013-2-19,31.5,18.4,12.1,26.3,7.5,-3.9,81,62,48,29.82,29.18,31,8,31,0.00
2013-2-20,25.8,17.4,9.2,10.3,2.2,-4.3,60,51,41,30.01,29.82,22,3,22,0.00
2013-2-21,30.7,26.1,21.4,23.1,16.2,5.2,79,66,51,30.01,29.86,19,3,19,0.00
2013-2-22,33.2,31.0,28.7,31.0,25.2,21.5,92,79,71,29.55,29.45,21,6,21,0.01
2013-2-23,28.7,26.4,24.4,21.8,17.0,13.0,76,68,55,29.61,29.54,22,6,22,0.00
2013-2-24,39.9,29.8,20.5,23.6,17.6,13.3,74,61,41,29.79,29.61,15,1,15,0.02
2013-2-25,37.2,34.1,29.1,28.5,23.8,19.4,75,66,58,29.82,29.62,17,2,17,0.00
2013-2-26,35.6,33.2,31.3,31.3,22.7,-99.9,96,77,62,29.63,29.16,27,8,27,0.15
2013-2-27,34.3,33.1,32.2,32.2,-11.6,-99.9,96,62,91,29.33,29.15,16,2,16,0.41
2013-2-28,35.0,32.4,27.9,30.8,26.6,20.3,92,79,64,29.70,29.33,22,5,24,0.04
2013-3-1,30.9,28.6,26.7,23.4,21.2,19.2,79,74,65,29.82,29.69,21,4,21,0.00
2013-3-2,31.5,27.5,22.1,22.1,16.0,10.8,81,62,50,29.83,29.78,20,3,20,0.01
2013-3-3,32.5,25.8,19.7,13.6,9.7,2.9,65,51,29,29.80,29.73,14,1,14,0.00
2013-3-4,33.8,29.8,25.4,24.7,18.0,11.7,72,61,46,29.77,29.65,16,3,17,0.00
2013-3-5,32.7,32.0,30.3,28.4,26.1,24.1,91,79,71,29.65,29.49,16,4,16,0.00
2013-3-7,36.9,33.4,31.2,26.6,22.7,17.3,80,65,51,30.07,30.01,12,2,12,0.00
2013-3-8,37.9,33.8,30.4,26.6,24.4,21.3,82,69,55,30.14,30.02,15,3,15,0.00
2013-3-29,48.2,43.5,37.6,29.2,18.3,13.2,69,38,26,29.96,29.88,12,2,12,0.00
2013-3-30,58.7,48.1,36.5,37.4,27.2,17.2,64,46,31,29.89,29.48,24,4,24,0.00
2013-3-31,57.3,48.0,38.6,43.3,32.7,19.5,89,58,32,29.52,29.33,27,7,28,0.00
2013-4-1,40.3,35.4,30.7,19.5,11.1,4.8,51,37,24,29.82,29.52,22,3,22,0.00
2013-4-2,43.1,34.3,27.5,19.6,11.0,-0.3,51,39,17,29.94,29.82,27,2,27,0.00
2013-4-3,37.9,34.4,29.4,21.4,15.0,10.4,54,45,35,30.11,29.94,16,2,16,0.00
2013-4-4,58.3,46.4,34.3,29.9,18.0,11.4,56,34,17,29.97,29.61,18,3,18,0.00
2013-4-5,49.8,39.0,35.3,31.6,24.9,19.3,77,57,41,29.89,29.63,21,5,21,0.00
2013-4-6,70.1,53.5,35.6,46.3,29.5,17.5,75,43,23,29.82,29.23,39,9,39,0.12
2013-4-7,55.4,46.2,39.5,47.4,35.8,30.6,80,67,47,29.63,29.24,28,6,31,0.00
2013-4-8,62.3,48.2,40.8,53.5,40.9,32.1,92,76,57,29.57,29.24,37,7,40,0.42
2013-4-9,50.1,42.9,39.6,42.9,39.0,36.6,93,86,74,29.63,29.49,20,4,21,0.25
2013-4-10,40.5,39.1,37.5,38.1,36.9,35.4,93,92,88,29.72,29.48,29,6,29,0.66
2013-4-11,47.0,41.5,37.5,45.6,39.9,35.5,95,94,92,29.55,29.21,27,4,27,0.39
2013-4-12,45.7,40.1,37.0,39.9,31.9,25.7,93,73,58,29.49,29.21,24,8,24,0.03
2013-4-13,44.8,39.9,33.5,30.3,25.3,19.6,79,57,40,29.63,29.48,22,7,25,0.01
2013-4-14,66.1,49.0,38.5,45.4,34.3,26.0,70,58,41,29.66,29.32,28,5,28,0.00
2013-4-15,64.5,57.5,46.5,52.5,46.8,41.2,88,68,43,29.62,29.32,34,8,37,0.33
2013-4-16,49.2,43.4,40.1,43.4,33.3,29.1,89,68,52,29.92,29.59,14,2,14,0.00
2013-4-17,49.6,43.4,41.2,47.3,37.7,30.6,93,81,65,29.93,29.44,27,5,27,1.42
2013-4-18,63.4,54.1,43.1,58.8,51.0,33.3,96,90,67,29.46,29.06,34,6,34,2.28
2013-4-19,43.1,37.8,34.0,34.0,27.3,23.0,84,66,57,29.56,29.13,33,11,33,0.02
2013-4-20,43.9,36.2,30.7,28.2,19.0,8.5,86,52,25,30.08,29.56,18,3,18,0.01
2013-4-21,52.0,43.4,36.6,26.7,20.6,11.6,59,41,27,30.17,29.98,21,5,21,0.00
2013-4-22,55.7,47.1,44.2,26.7,25.6,23.4,48,43,31,29.98,29.90,19,5,19,0.00
2013-4-23,52.9,41.9,36.6,49.8,39.1,33.7,91,90,88,29.59,29.52,16,3,19,0.52
2013-4-24,50.8,43.4,36.9,34.7,26.8,19.1,89,55,31,29.76,29.57,21,4,21,0.02
2013-4-25,51.6,45.8,40.5,35.5,27.8,22.3,82,51,33,29.97,29.69,28,5,28,0.03
2013-4-26,66.8,55.5,43.3,41.4,32.2,22.2,56,42,32,29.99,29.87,33,7,33,0.01
2013-4-27,61.3,55.2,50.1,43.7,40.6,38.0,75,59,44,29.93,29.65,14,1,14,0.00
2013-4-28,60.7,52.6,49.2,49.8,47.0,39.7,92,81,62,29.65,29.48,13,1,13,0.02
2013-4-29,73.9,63.8,51.9,50.8,48.4,43.6,87,60,38,29.56,29.41,26,6,26,39.80
2013-4-30,86.1,72.8,61.5,56.4,52.1,46.7,71,50,27,29.57,29.42,32,10,32,105.35
2013-5-1,82.4,73.0,66.6,55.3,50.7,44.4,65,47,27,29.76,29.57,20,3,21,80.87
2013-5-2,69.8,46.0,40.5,50.5,37.6,34.6,81,73,50,29.87,29.75,28,6,29,0.00
2013-5-3,47.0,41.8,39.2,44.2,38.8,34.6,92,89,82,29.80,29.60,26,4,26,0.06
2013-5-4,62.7,54.0,46.8,45.5,42.7,39.6,90,67,50,29.68,29.59,22,1,22,0.00
2013-5-5,63.7,54.4,47.7,41.6,39.3,36.4,74,57,43,29.68,29.62,18,1,20,0.00
2013-5-6,63.5,55.7,51.9,39.4,35.7,30.3,61,48,33,29.68,29.62,14,1,14,0.00
2013-5-7,70.9,58.2,49.9,42.5,36.0,28.5,65,45,27,29.70,29.63,25,1,25,0.38
2013-5-8,68.8,60.4,52.0,44.0,37.8,30.7,70,45,29,29.68,29.61,11,1,11,0.00
2013-5-9,73.3,61.0,46.2,59.2,45.9,35.7,92,60,39,29.61,29.48,23,1,24,0.42
2013-5-10,47.0,43.9,41.8,44.9,40.7,36.5,94,89,80,29.63,29.42,24,2,30,0.16
2013-5-11,59.9,50.0,44.1,47.2,35.6,19.0,85,62,27,29.67,29.47,26,4,28,0.00
2013-5-12,51.7,44.4,39.9,31.9,25.0,17.5,62,47,27,29.75,29.67,17,2,19,0.00
2013-5-13,54.7,47.7,42.3,35.2,32.0,27.3,72,55,42,29.83,29.64,16,2,16,0.00
2013-5-14,86.5,69.5,55.0,54.3,43.5,29.0,48,40,26,29.64,29.26,25,5,25,70.60
2013-5-15,81.1,72.1,63.4,54.5,45.6,40.0,53,39,24,29.47,29.24,27,3,27,35.58
2013-5-16,77.4,66.2,54.4,48.4,41.2,36.2,60,42,27,29.62,29.45,15,1,15,0.41
2013-5-17,65.0,58.2,53.6,47.6,42.6,36.3,66,56,47,29.70,29.59,15,1,15,0.00
2013-5-18,73.2,64.2,55.4,59.3,52.8,47.4,86,67,51,29.70,29.59,12,1,12,0.00
2013-5-19,79.0,70.5,62.4,62.2,58.4,54.0,82,66,51,29.60,29.40,17,1,17,0.00
2013-5-20,90.3,80.9,66.9,67.2,57.5,44.4,92,49,21,29.43,29.32,35,7,40,111.68
2013-5-21,82.0,73.3,65.6,65.1,60.0,54.1,92,66,39,29.40,29.28,27,6,27,20.32
2013-5-22,73.2,66.0,52.5,65.2,58.6,49.3,94,79,46,29.40,29.25,26,3,29,0.88
2013-5-23,52.3,46.6,42.5,49.7,39.9,32.3,94,78,59,29.93,29.40,35,6,38,0.07
2013-5-24,42.8,42.7,42.6,33.5,32.6,31.8,70,67,65,29.94,29.93,23,4,24,0.00
2013-5-25,52.2,49.4,47.0,38.9,35.2,32.4,66,58,51,29.98,29.94,13,0,13,0.00
2013-5-26,62.4,53.9,45.8,46.3,40.7,33.4,76,62,43,29.95,29.77,13,1,14,0.00
2013-5-27,57.0,54.7,52.5,53.1,51.2,46.1,94,88,72,29.79,29.51,18,3,18,0.03
2013-5-28,75.8,68.4,54.4,68.4,63.2,52.1,95,84,68,29.52,29.36,22,5,23,0.60
2013-5-29,83.2,71.8,64.8,63.8,61.1,57.3,90,70,49,29.60,29.41,27,3,27,2.69
2013-5-30,84.0,76.9,65.3,68.4,63.1,57.1,85,63,50,29.57,29.43,31,8,32,3.17
2013-5-31,78.1,70.6,65.2,64.1,62.3,59.4,91,76,60,29.51,29.43,27,7,27,0.12
2013-6-2,49.9,48.6,46.4,45.8,41.7,40.0,92,77,72,29.69,29.62,17,1,17,0.03
2013-6-3,63.7,55.3,44.1,45.8,40.3,33.2,90,59,40,29.76,29.69,13,1,13,0.00
2013-6-4,63.9,58.2,51.4,50.0,43.5,37.4,76,59,45,29.81,29.74,14,2,14,0.00
2013-6-5,66.0,59.2,54.1,51.1,46.2,42.1,81,63,45,29.75,29.57,18,2,18,0.00
2013-6-6,58.7,55.7,52.2,52.4,48.8,44.5,90,78,67,29.58,29.52,18,2,19,0.10
2013-6-7,62.9,56.9,51.6,49.0,43.9,30.0,84,64,32,29.60,29.54,17,2,17,0.00
2013-6-8,68.6,60.3,50.8,50.6,41.0,30.8,80,51,27,29.66,29.55,11,1,11,0.00
2013-6-9,75.6,68.0,56.3,60.3,53.7,49.2,79,61,45,29.65,29.44,12,1,14,0.00
2013-6-10,73.0,66.0,58.7,65.7,60.5,56.6,94,83,59,29.50,29.38,13,1,13,0.20
2013-6-11,83.4,72.2,59.0,61.7,58.9,55.8,94,66,42,29.55,29.43,15,1,15,54.47
2013-6-12,81.8,70.0,61.6,68.2,61.6,57.1,91,76,52,29.56,29.22,23,2,23,0.17
2013-6-13,66.1,61.2,57.0,60.3,52.0,48.6,94,73,55,29.69,29.23,23,3,23,0.00
2013-6-14,67.6,60.0,55.3,52.9,49.9,47.5,78,70,58,29.78,29.68,22,2,22,0.00
2013-6-15,77.9,68.9,59.2,66.5,59.5,49.0,86,72,62,29.71,29.48,20,1,20,0.16
2013-6-16,83.8,77.0,70.6,65.9,60.9,55.6,78,59,39,29.55,29.48,27,3,29,37.66
2013-6-17,89.5,77.2,60.4,58.2,50.7,43.7,76,44,21,29.58,29.46,18,1,22,122.84
2013-6-18,66.0,58.8,54.4,55.0,51.0,46.3,95,76,57,29.71,29.56,19,3,22,0.00
2013-6-19,69.3,63.1,55.9,53.2,46.5,32.2,83,57,29,29.80,29.70,14,1,14,0.00
2013-6-20,80.1,72.0,61.6,63.1,53.9,48.7,75,54,41,29.79,29.70,14,1,14,8.22
2013-6-21,84.3,76.0,69.8,66.9,62.3,56.5,89,64,49,29.80,29.45,36,4,36,0.32
2013-6-22,82.2,75.2,69.8,69.6,64.7,61.4,82,70,52,29.73,29.58,22,2,23,0.00
2013-6-23,89.7,78.4,69.9,69.8,64.5,60.0,80,64,43,29.67,29.55,27,4,27,64.87
2013-6-24,86.1,74.9,68.9,68.4,65.0,59.6,87,72,44,29.68,29.48,44,4,44,20.85
2013-6-25,86.3,74.8,69.9,71.8,65.5,60.9,84,73,56,29.60,29.45,27,1,27,0.14
2013-6-26,79.4,72.6,66.6,68.0,64.5,61.4,95,77,58,29.50,29.35,27,2,33,2.23
2013-6-27,91.0,76.1,65.5,69.4,64.5,56.6,92,70,33,29.42,29.31,43,2,43,71.19
2013-6-28,83.4,76.2,69.3,62.3,57.7,50.7,72,54,34,29.33,29.22,24,3,24,8.70
2013-6-29,66.9,64.5,62.6,61.4,57.9,53.8,91,79,69,29.40,29.27,21,4,22,0.01
2013-6-30,70.1,65.5,62.4,59.2,53.6,41.3,88,67,39,29.61,29.40,48,4,48,0.00
2013-7-1,68.9,65.3,61.6,55.4,52.7,48.5,79,64,54,29.70,29.61,21,2,21,0.00
2013-7-2,65.3,61.9,60.2,57.9,55.2,51.5,91,79,65,29.71,29.68,39,2,39,0.01
2013-7-3,60.5,60.3,60.2,57.9,57.7,57.5,91,91,90,29.69,29.65,13,0,13,0.00
2013-7-4,82.6,77.8,68.4,59.8,58.2,53.9,71,51,39,29.74,29.67,29,3,29,30.74
2013-7-5,80.7,75.0,67.4,64.1,60.2,54.4,75,61,43,29.73,29.65,9,1,13,0.20
2013-7-6,80.5,76.8,72.0,66.7,63.6,59.8,77,64,52,29.70,29.60,13,1,15,0.00
2013-7-7,89.3,80.4,71.3,68.1,64.8,59.4,82,61,41,29.65,29.57,16,2,16,49.71
2013-7-8,81.8,78.4,75.1,68.8,68.2,67.0,78,71,62,29.63,29.58,21,3,21,0.00
2013-7-11,72.0,71.9,71.6,55.6,54.9,54.3,57,55,54,29.72,29.72,9,1,9,0.00
2013-7-12,76.3,72.5,62.9,61.3,57.0,52.5,75,59,51,29.78,29.73,12,2,14,0.00
2013-7-13,77.9,74.5,70.4,64.7,59.2,47.8,76,60,37,29.79,29.73,13,3,13,0.00
2013-7-14,74.6,73.5,73.0,66.9,66.0,65.3,80,77,75,29.82,29.77,12,2,13,0.00
2013-7-15,84.9,81.7,78.3,72.5,71.4,70.5,79,71,63,29.90,29.84,17,4,18,0.00
2013-7-16,93.8,91.4,88.0,69.6,67.9,65.6,53,47,40,29.88,29.87,13,2,13,43.52
2013-7-20,81.4,79.5,78.1,67.2,65.3,62.4,69,62,53,29.53,29.48,12,0,12,0.00
2013-7-22,86.1,82.2,76.3,67.1,64.0,57.0,69,55,39,29.47,29.35,15,2,16,0.02
2013-7-23,81.2,74.0,65.5,66.0,58.9,51.9,66,59,43,29.61,29.38,24,3,24,0.01
2013-7-24,69.3,66.1,62.6,52.4,48.0,45.0,63,52,43,29.70,29.61,20,3,22,0.00
2013-7-25,75.1,72.7,66.0,55.2,52.5,49.0,57,49,43,29.74,29.67,12,2,19,0.00
2013-7-26,73.5,70.3,67.8,64.7,58.5,52.9,88,67,51,29.67,29.51,21,3,21,0.07
2013-7-27,65.6,62.2,59.9,49.9,44.8,41.1,60,53,47,29.54,29.52,20,2,21,0.00
2013-7-28,69.3,65.0,60.1,47.4,44.5,40.8,62,48,36,29.60,29.54,21,3,21,0.00
2013-7-29,70.4,66.7,64.7,57.0,53.8,49.5,76,64,49,29.81,29.75,11,1,13,0.00
2013-7-30,74.7,71.7,64.7,62.6,58.3,51.8,79,63,46,29.81,29.72,14,0,14,0.01
2013-7-31,74.9,69.5,66.3,65.4,63.9,62.3,93,83,66,29.66,29.58,11,0,12,0.02
2013-8-1,79.6,76.4,73.9,57.6,53.2,45.8,56,45,31,29.61,29.59,14,1,17,0.12
2013-8-2,83.6,74.7,63.7,66.0,63.4,59.9,91,69,49,29.54,29.47,21,1,26,0.84
2013-8-3,74.9,71.4,67.6,56.2,53.0,44.6,63,53,39,29.74,29.69,15,2,15,0.00
2013-8-4,70.3,67.4,62.3,56.7,55.0,52.1,80,65,58,29.84,29.74,11,2,16,0.00
2013-8-5,75.8,69.9,66.0,60.6,55.4,44.8,75,61,41,29.76,29.52,18,2,23,0.01
2013-8-6,84.7,75.6,68.8,68.4,65.3,60.5,87,71,51,29.53,29.45,17,2,18,0.00
2013-8-7,87.2,77.7,69.9,70.8,67.1,61.6,84,71,50,29.58,29.42,23,2,23,0.00
2013-8-8,73.5,70.3,67.9,62.9,56.5,49.4,82,62,44,29.67,29.57,20,3,20,0.00
2013-8-9,82.0,72.5,62.9,67.5,56.9,48.7,83,60,38,29.65,29.61,12,1,12,0.07
2013-8-10,76.7,73.3,69.9,67.1,58.5,49.3,81,61,39,29.76,29.66,14,2,14,0.00
2013-8-11,76.3,72.1,64.7,65.5,58.6,52.6,79,64,45,29.76,29.66,12,1,12,0.03
2013-8-12,83.8,74.6,69.6,68.5,63.3,58.6,89,69,46,29.67,29.50,18,2,18,0.02
2013-8-13,69.6,65.9,63.5,66.2,51.1,44.3,90,60,44,29.78,29.56,25,3,25,0.00
2013-8-14,67.9,64.5,61.5,51.3,48.1,42.9,65,56,43,29.86,29.78,17,1,17,0.00
2013-8-15,64.0,62.4,61.3,49.8,46.3,44.7,60,56,51,29.80,29.78,14,1,14,0.00
2013-8-18,76.3,75.0,73.3,60.3,55.9,50.0,61,52,43,29.84,29.74,12,3,12,0.00
2013-8-19,82.4,79.1,73.2,60.1,57.0,52.6,57,47,37,29.75,29.65,14,2,14,0.06
2013-8-20,87.4,81.8,73.2,62.4,58.4,51.8,66,46,31,29.75,29.66,16,1,17,0.37
2013-8-21,89.7,84.9,80.5,64.9,61.9,58.6,59,47,36,29.71,29.63,18,4,18,0.28
2013-8-22,80.5,72.3,68.9,67.8,65.7,62.3,90,80,59,29.77,29.64,26,2,26,0.13
2013-8-23,77.2,72.4,68.8,65.9,57.3,45.7,89,61,35,29.81,29.73,14,1,14,0.00
2013-8-24,80.3,74.9,67.6,62.5,57.5,49.0,80,56,38,29.89,29.81,17,1,17,0.00
2013-8-25,89.7,80.3,70.9,63.2,57.5,49.3,55,46,39,29.88,29.76,21,2,21,0.00
2013-8-26,91.4,82.2,72.5,69.6,64.9,60.6,67,56,41,29.78,29.63,23,2,23,0.00
2013-8-27,88.6,80.9,78.1,69.8,68.9,67.7,73,67,51,29.63,29.57,16,3,16,0.00
2013-8-28,73.9,71.2,69.9,68.3,67.8,67.2,94,89,81,29.67,29.63,10,1,10,0.00
2013-8-29,80.7,74.1,67.8,70.7,67.9,65.5,96,82,64,29.72,29.62,9,0,9,0.00
2013-8-30,95.6,80.3,69.8,69.2,67.0,63.4,87,66,38,29.62,29.37,20,2,32,50.49
2013-8-31,74.9,71.9,70.1,68.6,66.4,65.0,91,83,76,29.53,29.42,13,1,13,0.11
2013-9-1,81.8,75.0,68.1,70.1,66.6,60.3,93,76,52,29.45,29.35,15,0,15,0.00
2013-9-2,73.3,69.2,66.0,63.8,60.3,53.0,84,73,61,29.61,29.42,16,1,16,0.00
2013-9-3,71.6,66.3,58.0,57.6,54.3,50.8,78,66,53,29.72,29.61,12,1,12,0.00
2013-9-4,84.7,72.4,60.9,56.9,53.5,46.7,81,55,28,29.75,29.67,14,1,15,0.00
2013-9-5,73.7,68.9,66.3,66.4,53.1,42.3,87,58,39,29.90,29.73,17,2,17,0.00
2013-9-6,69.6,66.3,64.7,54.7,47.2,41.9,65,51,40,29.86,29.83,12,0,13,0.00
2013-9-9,94.3,87.7,72.1,70.0,68.8,66.6,83,55,43,29.56,29.43,20,3,23,32.07
2013-9-10,95.6,87.7,79.0,68.6,60.6,54.6,58,42,27,29.62,29.49,28,4,28,1.13
2013-9-11,84.9,83.3,81.8,62.3,61.4,60.4,50,48,45,29.61,29.61,15,1,15,0.00
2013-9-12,81.6,72.7,63.4,63.4,55.4,41.6,80,57,26,29.70,29.56,23,2,24,0.05
2013-9-13,64.3,60.0,53.3,53.7,45.1,38.7,76,59,42,29.80,29.70,26,1,26,0.01
2013-9-14,71.8,62.7,53.2,45.8,39.8,32.1,74,46,26,29.82,29.67,14,1,15,0.00
2013-9-15,63.9,59.6,56.7,58.2,49.6,35.5,94,73,35,29.78,29.63,16,0,16,0.56
2013-9-16,61.5,59.3,56.7,58.1,48.0,43.6,91,67,55,30.00,29.79,23,2,23,0.00
2013-9-17,66.8,62.4,55.6,55.9,49.1,45.0,72,62,47,29.98,29.75,14,1,14,0.00
2013-9-18,80.7,69.9,63.1,66.9,56.3,45.6,91,63,48,29.75,29.55,18,1,19,0.71
2013-9-19,79.9,72.8,68.4,69.7,66.6,61.9,94,81,69,29.60,29.42,15,1,17,0.51
2013-9-20,77.2,70.0,60.2,68.0,59.2,48.6,87,70,51,29.46,29.38,17,1,17,0.02
2013-9-21,66.1,59.5,53.8,52.4,45.6,39.8,85,62,40,29.58,29.43,15,0,16,0.00
2013-9-22,63.1,57.1,49.9,48.5,44.1,41.4,82,63,49,29.69,29.58,17,1,17,0.00
2013-9-23,64.0,59.5,54.5,52.8,46.7,42.3,72,63,52,29.76,29.68,15,2,17,0.00
2013-9-24,65.8,61.7,55.0,55.2,48.8,44.2,74,63,53,29.70,29.57,13,2,14,0.00
2013-9-25,65.3,63.0,59.3,57.6,52.6,48.5,80,69,57,29.62,29.57,13,2,13,0.00
2013-9-26,68.6,64.8,58.1,59.0,54.1,45.3,83,69,46,29.72,29.60,13,0,15,0.00
2013-9-27,74.4,68.3,59.3,59.3,50.1,42.5,84,53,35,29.80,29.70,12,0,12,0.00
2013-9-28,84.0,72.9,59.8,56.1,51.6,48.9,72,49,31,29.72,29.52,25,3,25,0.00
2013-9-29,75.6,60.7,54.8,65.2,51.5,44.0,92,73,49,29.69,29.53,20,0,20,0.35
2013-9-30,72.7,62.4,51.7,55.1,49.8,38.9,88,65,31,29.64,29.51,12,0,14,0.00
2013-10-1,78.3,69.6,62.1,62.7,59.8,52.0,91,72,53,29.59,29.51,17,2,22,0.00
2013-10-2,70.3,67.8,62.9,64.3,54.5,43.0,90,64,40,29.73,29.59,11,0,11,0.00
2013-10-3,78.1,70.0,65.0,68.0,64.6,55.2,97,84,66,29.62,29.48,17,1,17,0.18
2013-10-4,73.9,68.8,66.3,66.6,64.0,61.9,93,85,76,29.62,29.52,17,0,17,0.00
2013-10-5,80.5,71.4,65.8,70.1,67.2,63.7,93,87,65,29.58,29.37,20,1,20,0.63
2013-10-6,69.3,56.1,47.6,66.9,44.2,35.6,92,66,43,29.42,29.32,20,2,24,0.11
2013-10-7,68.3,55.1,45.4,48.5,42.3,36.6,85,64,36,29.72,29.40,18,2,20,0.00
2013-10-8,73.5,62.5,51.0,50.2,46.4,42.0,81,57,33,29.82,29.71,15,0,15,0.00
2013-10-9,66.0,61.7,55.4,55.7,46.2,39.7,82,58,39,29.89,29.78,12,0,12,0.00
2013-10-10,70.9,65.0,58.4,56.2,51.0,45.3,81,61,41,29.81,29.68,7,0,9,0.00
2013-10-11,72.0,65.7,59.5,54.4,48.8,42.5,77,55,39,29.72,29.60,13,1,13,0.00
2013-10-12,73.5,65.6,56.9,60.9,51.5,39.9,81,61,48,29.81,29.60,21,2,21,0.00
2013-10-13,63.7,56.0,48.6,43.4,39.1,32.5,75,54,33,30.03,29.81,12,0,12,0.00
2013-10-14,58.9,54.4,49.2,44.2,41.7,39.0,81,63,50,30.03,29.95,14,1,14,0.00
2013-10-15,64.8,60.9,53.6,60.4,53.5,42.5,93,77,63,29.62,29.41,15,3,21,0.09
2013-10-16,54.1,51.2,47.0,45.0,42.9,40.3,79,73,66,29.58,29.48,22,4,22,0.00
2013-10-17,51.9,49.6,47.7,46.9,44.3,39.8,92,82,67,29.56,29.45,21,2,21,0.20
2013-10-18,49.5,46.1,43.2,41.2,38.5,35.8,84,75,59,29.58,29.47,23,2,23,0.00
2013-10-19,53.2,49.6,46.8,37.4,32.8,26.5,69,54,37,29.48,29.42,25,4,26,0.00
2013-10-20,63.9,52.3,41.2,45.0,38.4,35.4,81,61,39,29.53,29.34,22,1,22,0.00
2013-10-21,56.5,46.4,37.6,45.8,31.3,20.5,82,56,34,29.61,29.42,23,3,23,0.03
2013-10-22,42.2,37.9,33.2,34.8,26.8,19.8,84,65,42,29.63,29.55,14,1,16,0.00
2013-10-23,45.5,39.1,33.1,32.0,24.7,15.6,81,58,33,29.66,29.54,21,2,21,0.00
2013-10-24,43.5,39.3,36.3,25.5,21.9,14.0,64,50,31,29.93,29.65,18,2,18,0.00
2013-10-25,51.0,41.9,32.4,24.3,22.6,18.8,66,48,32,30.04,29.67,23,4,28,0.00
2013-10-26,53.9,47.4,42.1,32.7,26.3,22.1,54,44,35,29.71,29.49,20,4,34,0.00
2013-10-27,54.2,45.6,36.2,29.2,26.4,23.8,68,48,31,29.71,29.60,20,2,20,0.00
2013-10-28,51.0,46.9,39.6,42.1,36.1,28.7,81,66,54,30.00,29.70,22,2,22,0.00
2013-10-29,53.8,48.7,44.5,42.6,38.9,36.7,78,69,53,30.00,29.78,15,1,15,0.00
2013-10-30,61.5,54.5,47.9,60.2,49.9,41.3,96,85,66,29.78,29.39,18,0,18,0.44
2013-10-31,63.4,59.6,48.0,61.9,57.1,42.6,96,91,80,29.38,28.82,28,4,28,0.81
2013-11-1,48.0,45.7,43.5,43.4,37.0,33.6,84,72,63,29.23,29.00,33,8,33,0.00
2013-11-2,47.7,44.7,42.1,39.9,37.9,35.3,84,77,64,29.77,29.58,12,0,12,0.00
2013-11-3,49.6,44.5,36.5,40.0,36.3,33.9,92,74,56,29.94,29.77,23,1,23,0.04
2013-11-4,57.0,51.1,45.4,40.6,36.2,32.6,71,57,40,29.92,29.75,27,6,28,0.00
2013-11-5,56.0,53.6,51.6,49.9,44.7,40.4,89,72,62,29.90,29.59,29,4,31,0.03
2013-11-6,56.7,48.6,37.0,54.4,43.5,23.6,96,83,58,29.80,29.41,26,5,27,3.76
2013-11-7,44.9,37.7,32.8,29.6,26.3,20.7,75,64,40,29.88,29.80,21,2,21,0.00
2013-11-8,47.9,40.8,31.5,28.4,27.0,23.7,83,60,44,29.98,29.60,29,2,29,4.65
2013-11-9,57.6,50.7,42.3,36.9,32.8,19.5,62,51,39,29.73,29.48,28,9,32,0.00
2013-11-10,49.2,43.1,35.9,28.6,25.5,20.2,64,50,37,29.96,29.73,25,3,25,0.00
2013-11-11,47.3,38.1,25.8,36.4,26.6,13.7,90,65,47,30.12,29.72,20,2,21,0.14
2013-11-12,33.8,28.0,24.4,17.2,13.0,8.2,65,53,36,30.33,30.13,18,2,20,0.01
2013-11-13,40.5,30.9,21.4,19.6,13.2,5.0,66,49,25,30.23,29.79,28,6,29,0.01
2013-11-14,34.9,34.3,33.8,17.6,17.0,16.2,51,49,47,29.80,29.75,22,6,22,0.00
2013-11-18,42.8,38.3,31.2,27.0,23.0,20.0,64,54,44,29.90,29.55,31,6,31,0.00
2013-11-19,41.2,34.6,27.3,32.6,24.4,19.1,74,66,57,30.02,29.90,19,1,19,0.00
2013-11-20,44.6,40.0,35.8,36.3,26.9,21.1,84,60,43,29.94,29.73,38,3,38,0.16
2013-11-21,51.4,46.7,42.6,44.9,39.3,34.3,91,76,64,29.83,29.74,16,1,16,0.05
2013-11-22,42.6,36.5,29.1,38.6,28.9,18.3,87,74,61,30.10,29.82,25,2,25,0.02
2013-11-23,29.0,22.5,15.7,18.4,4.9,-2.9,65,47,33,30.34,30.06,25,4,25,0.00
2013-11-24,27.2,20.0,13.1,5.7,-0.6,-6.6,54,41,24,30.36,30.01,22,3,22,0.00
2013-11-25,31.8,28.1,22.9,25.2,15.6,4.0,84,61,41,30.00,29.72,19,5,24,0.00
2013-11-26,34.9,29.6,18.1,25.4,18.7,1.9,76,64,45,29.79,29.65,19,2,20,0.00
2013-11-27,29.1,21.5,14.0,8.3,5.1,0.8,62,49,34,29.91,29.77,20,3,20,0.00
2013-11-28,33.7,27.6,24.4,13.6,9.8,6.2,60,47,39,30.14,29.83,23,3,23,0.00
2013-11-29,34.4,29.4,21.8,22.2,15.5,10.4,66,56,45,30.28,30.04,23,1,23,0.00
2013-11-30,50.7,40.3,32.5,28.2,23.6,17.2,63,52,36,30.04,29.69,20,3,20,0.00
2013-12-1,41.2,37.5,35.3,32.6,29.9,27.4,83,74,63,29.75,29.62,12,0,12,0.00
2013-12-2,40.5,37.9,36.0,33.4,29.2,23.9,85,72,53,29.62,29.48,13,2,13,0.00
2013-12-3,42.2,42.2,42.2,38.9,38.9,38.9,88,88,88,29.37,29.37,9,9,9,0.00
2013-12-4,56.7,52.3,42.8,53.1,47.9,34.9,93,85,69,29.35,29.15,30,5,31,0.00
2013-12-5,42.8,28.3,22.1,35.5,16.3,7.1,77,61,50,29.91,29.30,27,7,27,0.00
2013-12-6,22.2,18.7,13.3,8.0,5.0,-1.6,62,55,45,30.19,29.88,17,2,17,0.00
2013-12-7,21.3,15.0,9.0,3.7,-1.3,-5.3,61,49,32,30.34,30.19,16,1,16,0.00
2013-12-8,25.8,22.7,16.2,23.5,14.7,0.8,91,72,50,30.23,29.58,21,2,21,0.00
2013-12-9,25.1,17.5,3.7,21.5,9.3,-7.8,86,70,51,29.89,29.57,25,7,25,0.00
2013-12-10,22.2,13.1,2.6,8.1,0.9,-8.1,65,58,51,29.95,29.67,31,8,37,0.00
2013-12-11,20.5,14.2,3.2,12.4,3.0,-10.7,81,62,38,30.22,29.91,27,4,27,0.00
2013-12-12,20.2,15.5,2.4,9.4,2.3,-10.9,65,56,44,30.20,29.85,29,6,29,0.00
2013-12-13,31.6,25.9,19.1,26.0,16.3,9.3,87,67,59,29.85,29.76,13,1,13,0.00
2013-12-14,30.0,28.3,23.9,28.3,25.5,18.9,96,89,80,29.75,29.55,16,3,16,0.00
2013-12-15,23.9,15.8,12.3,18.9,6.2,-0.7,81,66,54,29.78,29.57,30,6,30,0.00
2013-12-16,22.5,17.1,10.4,16.4,7.1,-4.8,81,65,46,29.81,29.66,15,1,17,0.00
2013-12-17,33.4,24.4,16.9,23.1,16.7,10.9,87,73,54,29.72,29.58,24,6,24,0.04
2013-12-18,34.9,26.8,17.8,25.8,13.6,8.1,70,58,35,29.81,29.47,28,4,28,0.00
2013-12-19,40.3,36.9,34.9,35.8,31.2,25.8,92,80,69,29.57,29.43,15,1,15,0.08
2013-12-20,37.9,35.4,33.5,36.1,33.6,31.7,95,93,92,29.45,29.36,16,1,16,0.21
2013-12-21,35.6,33.6,31.0,33.5,31.6,29.2,94,93,88,29.50,29.22,26,2,26,0.24
2013-12-22,33.8,30.9,25.0,31.0,27.2,18.5,92,86,77,29.75,29.23,24,2,24,0.11
2013-12-23,25.8,14.9,0.5,20.8,6.4,-9.5,81,69,58,30.10,29.75,25,6,25,0.00
2013-12-24,18.9,8.1,-0.4,8.9,-1.4,-9.9,71,65,50,30.21,30.01,20,5,20,0.00
2013-12-25,26.7,23.5,18.0,23.2,16.9,7.1,88,76,57,30.01,29.73,21,4,22,0.00
2013-12-26,28.7,20.9,16.5,21.5,12.9,8.1,84,71,63,29.94,29.73,21,4,21,0.00
2013-12-27,43.8,39.6,30.3,29.1,27.2,24.8,86,61,49,29.93,29.71,32,6,32,0.01
2013-12-28,51.4,42.8,36.2,33.2,30.3,26.9,78,62,45,29.72,29.46,34,5,34,0.00
2013-12-29,39.6,28.5,12.9,29.8,20.1,-0.5,85,71,56,29.83,29.40,24,3,24,0.00
2013-12-30,14.4,9.4,3.5,3.1,-3.2,-7.3,72,57,40,29.98,29.83,16,2,16,0.00
2013-12-31,16.5,10.1,4.5,12.1,2.0,-4.7,83,70,58,30.00,29.83,17,3,17,0.00
2014-1-1,23.3,20.9,16.7,17.8,16.0,12.4,85,81,77,29.94,29.81,20,4,20,0.00
2014-1-2,21.3,16.3,5.6,16.7,9.4,-5.8,86,74,60,30.05,29.75,26,5,26,0.00